ONEWEB-0545

operational
NORAD ID: 54647 Int'l Des: 2022-166 Owner: ONEWEBN Country: UK Constellation: oneweb
LEOCIRCULARPOLARONEWEB_TYPE

Über ONEWEB-0545

Beschreibung wird geladen...

Live-Position

3D-Globus wird geladen...

Nächste Überflüge

Höhenverlauf

Altitude vs Time

uPlot chart will show altitude changes over time

Zweizeiliger Elementsatz

1 54647U 22166F 25251.59965264 -.00000004 00000-0 -41895-4 0 9991
2 54647 87.9218 300.1814 0002191 82.1641 277.9742 13.21822492134308
Epoch: 8. Sept. 2025 • Age: 13 hours

Aktueller Status

Höhe 1189.5 km
Geschwindigkeit 7.27 km/s
Subsatellitenpunkt 77.84°N, 67.64°E
Startdatum 8. Dez. 2022
Alter 2.7 years
Typ internet

Technische Details

Klassifizierung Payload
Masse 148.00 kg
Trockenmasse 140.00 kg
Gesamtmasse 148.00 kg
Länge 1.30 m
Durchmesser 1.00 m
Spannweite 5.00 m
Form Trapezoid+2 pan
Hersteller ONEWUS
Bus-Typ ARROW
Phasenstatus In Orbit
Besitzer/Staat ONEWEBN/UK

Große Konstellationen

Loading constellations...